DW9104 Dudley UK current weather conditions

sailwx.info

Wind from 296 at 0 knots gusting 7

Air temperature 18.3° C
Dewpoint 12.1° C

Last reported at 2019-Aug-17 11:04 UTC.
Time now 2019-Aug-17 11:28 UTC

Location: N 52°32' W 002°06'.
View on Google Maps.

See reports from other nearby stations

  
Tides and Currents Weather Stations Pressure Air Temp Water Temp Dewpoint Dewpoint Depression Visibility Wind Speed Wind Dir Waves Ship Positions
date/time (UTC)wind fromknots sea level pressurealtimeterstation pressurevisibilityair tempwater tempwave heightnotes
2019-Aug-17 11:09 277 1 gusting 6 18.3
2019-Aug-17 11:04 296 0 gusting 7 18.3
2019-Aug-17 10:39 349 17.2
2019-Aug-17 10:34 032 17.2
2019-Aug-17 10:09 021 0 gusting 5 17.2
2019-Aug-17 10:04 297 1 gusting 6 16.7
2019-Aug-17 09:39 017 17.2
2019-Aug-17 09:34 337 0 gusting 5 16.7
2019-Aug-17 09:09 079 17.2
2019-Aug-17 09:04 279 17.8
2019-Aug-17 08:39 089 17.2
2019-Aug-17 08:34 229 0 gusting 2 16.7
2019-Aug-17 08:09 254 15.6
2019-Aug-17 08:04 245 15.6
2019-Aug-17 07:39 217 0 gusting 1 15.0
2019-Aug-17 07:34 225 15.0
2019-Aug-17 07:09 241 14.4
2019-Aug-17 07:04 237 14.4
2019-Aug-17 06:39 242 0 gusting 2 13.9
2019-Aug-17 06:34 238 13.9
2019-Aug-17 06:09 233 13.9
2019-Aug-17 06:04 229 13.9
2019-Aug-17 05:39 253 13.3
2019-Aug-17 05:34 235 13.3
2019-Aug-17 05:09 255 13.3
2019-Aug-17 05:04 233 12.8
2019-Aug-17 04:39 238 13.3
2019-Aug-17 04:34 230 13.3
2019-Aug-17 04:09 231 12.8
2019-Aug-17 04:04 239 12.8
2019-Aug-17 03:39 200 12.8
2019-Aug-17 03:34 211 12.8
2019-Aug-17 03:09 240 13.3
2019-Aug-17 03:04 203 13.3
2019-Aug-17 02:39 216 13.3
2019-Aug-17 02:34 219 13.3
2019-Aug-17 02:09 233 12.8
2019-Aug-17 02:04 270 12.8
2019-Aug-17 01:39 226 13.3
2019-Aug-17 01:34 232 13.3
2019-Aug-17 01:09 221 13.3
2019-Aug-17 01:04 257 12.8
2019-Aug-17 00:39 254 13.3
2019-Aug-17 00:34 268 13.3
2019-Aug-17 00:09 015 13.3
2019-Aug-17 00:04 218 13.3
2019-Aug-16 23:39 242 13.3
2019-Aug-16 23:34 258 13.3
2019-Aug-16 23:09 341 0 gusting 2 15.0
2019-Aug-16 23:04 288 0 gusting 2 15.0
2019-Aug-16 22:39 253 16.1
2019-Aug-16 22:34 237 16.1
2019-Aug-16 22:09 235 16.1
2019-Aug-16 22:04 217 16.1
2019-Aug-16 21:39 256 16.1
2019-Aug-16 21:34 222 16.1
2019-Aug-16 21:09 226 0 gusting 2 16.1
2019-Aug-16 21:04 245 16.1
2019-Aug-16 20:39 237 16.1
2019-Aug-16 20:34 254 0 gusting 5 16.1
2019-Aug-16 20:09 237 16.1
2019-Aug-16 20:04 237 16.1
2019-Aug-16 19:39 220 0 gusting 1 16.1
2019-Aug-16 19:34 245 16.1
2019-Aug-16 19:09 244 16.1
2019-Aug-16 19:04 255 16.1
2019-Aug-16 18:39 259 16.1
2019-Aug-16 18:34 215 16.1
2019-Aug-16 18:09 239 0 gusting 2 16.1
2019-Aug-16 18:04 207 0 gusting 5 16.1
2019-Aug-16 17:39 222 0 gusting 5 16.1
2019-Aug-16 17:34 219 0 gusting 6 15.6
2019-Aug-16 17:09 222 0 gusting 2 15.6
2019-Aug-16 17:04 253 0 gusting 6 15.6
2019-Aug-16 16:39 253 0 gusting 4 15.6
2019-Aug-16 16:34 242 1 gusting 6 15.6
2019-Aug-16 16:09 231 1 gusting 6 15.6
2019-Aug-16 16:04 245 1 gusting 7 15.6
2019-Aug-16 15:39 247 2 gusting 6 15.6
2019-Aug-16 15:34 259 0 gusting 8 15.6
2019-Aug-16 15:09 252 0 gusting 2 15.6
2019-Aug-16 15:04 250 1 gusting 6 15.6
2019-Aug-16 14:39 243 0 gusting 2 15.6
2019-Aug-16 14:34 246 1 gusting 6 15.6
2019-Aug-16 14:09 244 0 gusting 2 15.6
2019-Aug-16 14:04 239 0 gusting 5 15.6
2019-Aug-16 13:39 242 15.6
2019-Aug-16 13:34 238 1 gusting 5 15.6
2019-Aug-16 13:09 222 0 gusting 4 15.6
2019-Aug-16 13:04 225 0 gusting 2 15.6
2019-Aug-16 12:39 243 1 gusting 6 15.6
2019-Aug-16 12:34 231 15.6
2019-Aug-16 12:09 240 0 gusting 4 16.1
2019-Aug-16 12:04 255 1 gusting 6 16.1
2019-Aug-16 11:39 235 1 gusting 6 15.6
2019-Aug-16 11:34 245 1 gusting 10 15.6
2019-Aug-16 11:09 248 0 gusting 2 16.1
2019-Aug-16 11:04 231 0 gusting 5 16.1
2019-Aug-16 10:39 242 0 gusting 2 16.1
2019-Aug-16 10:34 202 16.1
2019-Aug-16 10:09 244 0 gusting 4 15.6
2019-Aug-16 10:04 252 1 gusting 6 15.6
2019-Aug-16 09:39 238 0 gusting 2 15.6
2019-Aug-16 09:34 246 0 gusting 4 15.6
2019-Aug-16 09:09 178 0 gusting 5 15.0
2019-Aug-16 09:04 236 0 gusting 2 14.4
2019-Aug-16 08:39 231 0 gusting 5 14.4
2019-Aug-16 08:34 234 0 gusting 5 14.4
2019-Aug-16 08:09 240 1 gusting 5 14.4
2019-Aug-16 08:04 217 14.4
2019-Aug-16 07:39 240 0 gusting 2 14.4
2019-Aug-16 07:34 232 0 gusting 5 14.4
2019-Aug-16 07:09 245 0 gusting 2 14.4
2019-Aug-16 07:04 264 0 gusting 4 14.4
2019-Aug-16 06:39 238 0 gusting 2 13.9
2019-Aug-16 06:34 235 0 gusting 6 13.9
2019-Aug-16 06:09 240 0 gusting 2 13.9
2019-Aug-16 06:04 230 0 gusting 2 13.9
2019-Aug-16 05:39 231 13.9
2019-Aug-16 05:34 243 0 gusting 6 13.9
2019-Aug-16 05:09 208 0 gusting 2 13.9
2019-Aug-16 05:04 229 13.9
2019-Aug-16 04:39 234 13.9
2019-Aug-16 04:34 224 0 gusting 2 13.9
2019-Aug-16 04:09 228 13.3
2019-Aug-16 04:04 238 13.3
2019-Aug-16 03:39 221 13.3
2019-Aug-16 03:34 217 13.3
2019-Aug-16 03:09 210 13.3
2019-Aug-16 03:04 217 13.3
2019-Aug-16 02:39 231 12.8
2019-Aug-16 02:34 227 12.8
2019-Aug-16 02:09 216 12.8
2019-Aug-16 02:04 233 12.8
2019-Aug-16 01:39 217 12.8
2019-Aug-16 01:34 211 13.3
2019-Aug-16 01:09 240 13.9
2019-Aug-16 01:04 108 13.9
2019-Aug-16 00:39 129 13.9
2019-Aug-16 00:34 128 13.9
2019-Aug-16 00:09 167 13.9
2019-Aug-16 00:04 167 13.9
2019-Aug-15 23:39 103 13.3
2019-Aug-15 23:34 062 13.3
2019-Aug-15 23:09 236 12.8
2019-Aug-15 23:04 254 12.8
2019-Aug-15 22:39 210 12.8
2019-Aug-15 22:34 207 12.8
2019-Aug-15 22:09 207 12.8
2019-Aug-15 21:39 214 12.8
2019-Aug-15 21:34 214 12.8
2019-Aug-15 21:09 224 12.8
2019-Aug-15 21:04 224 12.8
2019-Aug-15 20:39 337 13.3
2019-Aug-15 20:34 337 13.3
2019-Aug-15 20:09 347 13.3
2019-Aug-15 20:04 347 13.3
2019-Aug-15 19:39 347 15.0
2019-Aug-15 19:34 347 15.0
2019-Aug-15 19:09 347 16.7
2019-Aug-15 19:04 347 16.7
2019-Aug-15 18:39 014 18.3
2019-Aug-15 18:34 028 1 gusting 5 18.3
2019-Aug-15 18:09 020 1 gusting 5 18.9
2019-Aug-15 18:04 311 0 gusting 5 18.9
2019-Aug-15 17:39 355 18.9
2019-Aug-15 17:34 351 0 gusting 7 18.9
2019-Aug-15 17:09 311 0 gusting 2 18.9
2019-Aug-15 17:04 041 0 gusting 7 18.9
2019-Aug-15 16:39 317 0 gusting 5 17.8
2019-Aug-15 16:34 245 17.8
2019-Aug-15 16:09 305 0 gusting 2 18.3
2019-Aug-15 16:04 272 1 gusting 10 17.8
2019-Aug-15 15:39 300 0 gusting 5 18.9
2019-Aug-15 15:34 356 1 gusting 6 18.9
2019-Aug-15 15:09 318 0 gusting 6 20.6
2019-Aug-15 15:04 318 1 gusting 10 20.6
2019-Aug-15 14:39 004 1 gusting 5 20.6
2019-Aug-15 14:34 008 2 gusting 11 20.6
2019-Aug-15 14:09 326 1 gusting 6 20.0
2019-Aug-15 14:04 233 0 gusting 8 20.0
2019-Aug-15 13:39 335 0 gusting 6 19.4
2019-Aug-15 13:34 294 0 gusting 7 19.4
2019-Aug-15 13:09 318 1 gusting 6 18.9
2019-Aug-15 13:04 337 1 gusting 10 18.9
2019-Aug-15 12:39 004 2 gusting 10 19.4
2019-Aug-15 12:34 359 18.9
2019-Aug-15 12:09 302 0 gusting 4 19.4
2019-Aug-15 12:04 348 0 gusting 6 18.9
2019-Aug-15 11:39 347 0 gusting 6 18.3
2019-Aug-15 11:34 301 0 gusting 7 18.3
2019-Aug-15 11:09 012 1 gusting 7 17.2
2019-Aug-15 11:04 001 1 gusting 6 17.2